User: anonymous   Login
Location: The Saddle
(36.8333°N, 80.3417°W)
Time: 16:20:12
(UTC-04:00)
Language:

SR - Orbit

View from above orbital plane
View from above orbital plane
View from above satellite
View from above satellite

Ground track
Ground track

The orbit data is extracted from the following two-line orbital elements,

1 00046U 60007B   24197.57282147  .00002761  00000-0  55265-3 0  9994
2 00046  66.6921 337.8958 0194493 100.2584 262.0518 14.52128202355010
Epoch (UTC): 15 July 2024 13:44:51
Eccentricity: 0.0194493
inclination: 66.6921°
perigee height: 580 km
apogee height: 857 km
right ascension of ascending node: 337.8958°
argument of perigee: 100.2584°
revolutions per day: 14.52128202
mean anomaly at epoch: 262.0518°
orbit number at epoch: 35501

The dashed part of the orbit path shows where the satellite is in the earth's shadow,  

DLR